{"data":{"norad_id":89146,"epoch":"2026-05-23T18:34:12.158976Z","epoch_age_seconds":180459,"freshness":"STALE","line1":"1 89146U          26143.77375184  .00001869  00000+0  34197-3 0  9996","line2":"2 89146  98.2572  77.7749 0089313 267.8759  91.2214 14.64562333652584","mean_motion":14.64562333,"eccentricity":0.0089313,"inclination_deg":98.2572,"raan_deg":77.7749,"arg_perigee_deg":267.8759,"mean_anomaly_deg":91.2214,"bstar":0.00034197,"rev_number":65258,"period_min":98.322889204061,"perigee_km":615.45611390035,"apogee_km":741.50565653685,"semimajor_km":7056.6178852186,"source":"CELESTRAK","updated_at":"2026-05-25T13:38:11.778184Z"}}